STARLINK-36996, 68064

Orbit data source: Space-Track

STARLINK-36996, 68064 is a payload satellite owned by SpaceX/Seattle (US) in LEO that was launched on Mon, 02 Mar 2026 UTC via an FALCON 9 launch vehicle from the Air Force Eastern Test Range (AFETR). Payload-class satellites include a variety of spacecraft equipped with specific instruments for various scientific and technological missions. These include communications satellites like Starlink; space stations such as the ISS; scientific satellites like the Hubble; Earth observation satellites from companies like Planet Labs, Umbra, and HawkEye 360; GPS; miniature CubeSats for education and research; and military/defense satellites.

Loading next visibility...
Identifier
68064, 2026-041AA
Orbit
LEO
Country
Flag of USUS
Related business
Manufacturer
SpaceX/Seattle
Mission
Operational Commercial Communications
Bus & Motor
STARLINK V2MO, Unknown motor
Mass
575 kg wet, ~530 kg dry
Launch date (UTC)
2026-03-02 (2 months ago)
Launch vehicle
FALCON 9
Launch site
Air Force Eastern Test Range (AFETR)
Object type
Payload
Rocket body
Debris
Shape & HBR
Box + 2 Pan, 17.7 m
Radar Cross Section
36.964 m²

Expand to show TLE details & history
Last TLE update: 6 hours ago

TLE from 6 hours ago
0 STARLINK-36996
1 68064U 26041AA  26119.16262865  .00037944  00000-0  97829-3 0  9997
2 68064  53.1588 174.8813 0001557  82.3283 277.7898 15.38845523  9126
Epoch: 2026-04-29T03:54Z
TLE epoch observation values (Epoch: 2026-04-29T03:54:11.115Z)
Latitude
-0.00004°
Longitude
-100.79258°
Altitude
450.281 km
Speed
7.643 km/s
True Right ascension
11h 39m 31s
True Declination
0° 00' 00"
Sunlit
Object was in full shadow at epoch
Visualization orbit readout
Latitude
Unknown
Longitude
Unknown
Altitude
Unknown
Speed
Unknown
Apparent Right ascension
Unknown
Apparent Declination
Unknown
Sunlit
N/A
Visualization observer readout
Local Sidereal Time
17:07:11
Azimuth
Unknown
Elevation
Unknown
Doppler factor
Unknown
Orbital elements
Apogee altitude
450.843 km
Perigee altitude
448.716 km
Semi-major axis
6,827.917 km
Eccentricity
0.00016
Inclination
53.1588°
RAAN
174.8813°
Arg. of periapsis
82.3283°
True anomaly
277.77212°
Mean anomaly
277.7898°
Eccentric anomaly
277.78096°
Mean motion
3.8469 °/min
Orbital period
93.58 mins
BSTAR
0.00097829
Loading maneuver chart data...
Computing Atmospheric mass density...
Loading historical data...
Loading historical data...
Loading historical data...
Loading historical data...
Loading historical data...
Loading historical data...
Loading historical data...

Documentation

Showing up to 5 results
|